AAL2843 KFAT-KPHX

Flight info

Callsign AAL2843
Flight time 1h 12m
Altitude 39000
Route YOSE3 NTELL CABAB Q174 SKANN Q13 PRFUM WOTRO BRUSR1
Aircraft B38M/M-SDE1FGHILORVWXY/HB1

Departure

Time 2026-04-23 22:29
Airport Fresno Yosemite International Airport (KFAT)

Arrival

Time 2026-04-23 23:41
Airport Phoenix Sky Harbor International Airport (KPHX)
Time Latitude Longitude Altitude Speed Heading
2026-04-23 22:20 36.77132 -119.71770 340 ft 0 kts 303°
2026-04-23 22:22 36.77126 -119.71759 339 ft 4 kts 299°
2026-04-23 22:23 36.77114 -119.71729 336 ft 4 kts 301°
2026-04-23 22:23 36.77108 -119.71715 333 ft 3 kts 24°
2026-04-23 22:23 36.77103 -119.71719 337 ft 0 kts 35°
2026-04-23 22:25 36.77104 -119.71718 337 ft 1 kts 35°
2026-04-23 22:26 36.77133 -119.71692 336 ft 10 kts 35°
2026-04-23 22:26 36.77201 -119.71618 337 ft 16 kts 64°
2026-04-23 22:26 36.77154 -119.71475 336 ft 21 kts 124°
2026-04-23 22:26 36.77058 -119.71307 334 ft 26 kts 126°
2026-04-23 22:27 36.76970 -119.71147 334 ft 16 kts 111°
2026-04-23 22:27 36.76973 -119.71101 335 ft 0 kts 57°
2026-04-23 22:27 36.76974 -119.71100 335 ft 1 kts 57°
2026-04-23 22:27 36.76989 -119.71080 334 ft 5 kts 38°
2026-04-23 22:28 36.77044 -119.71067 334 ft 15 kts 343°
2026-04-23 22:28 36.77109 -119.71147 331 ft 27 kts 305°
2026-04-23 22:28 36.77329 -119.71536 336 ft 91 kts 305°
2026-04-23 22:28 36.77837 -119.72430 345 ft 159 kts 306°
2026-04-23 22:29 36.78566 -119.73614 939 ft 175 kts 308°
2026-04-23 22:29 36.79378 -119.74828 1720 ft 195 kts 312°
2026-04-23 22:29 36.80319 -119.76180 2470 ft 215 kts 308°
2026-04-23 22:29 36.81266 -119.77726 3301 ft 237 kts 307°
2026-04-23 22:30 36.82269 -119.79428 4342 ft 244 kts 307°
2026-04-23 22:30 36.83232 -119.81165 5417 ft 249 kts 306°
2026-04-23 22:30 36.84369 -119.82888 6114 ft 267 kts 322°
2026-04-23 22:30 36.86018 -119.83935 7135 ft 266 kts 343°
2026-04-23 22:31 36.87860 -119.84225 8129 ft 272 kts
2026-04-23 22:31 36.89734 -119.83764 9049 ft 279 kts 20°
2026-04-23 22:31 36.91428 -119.82560 10032 ft 284 kts 38°
2026-04-23 22:31 36.92807 -119.80715 10643 ft 302 kts 55°
2026-04-23 22:32 36.93725 -119.78265 11049 ft 324 kts 74°
2026-04-23 22:32 36.94193 -119.75432 11504 ft 341 kts 72°
2026-04-23 22:32 36.95162 -119.72697 12199 ft 347 kts 64°
2026-04-23 22:32 36.96143 -119.69913 13011 ft 352 kts 66°
2026-04-23 22:33 36.97107 -119.67073 13865 ft 356 kts 66°
2026-04-23 22:33 36.98064 -119.64200 14610 ft 361 kts 66°
2026-04-23 22:33 36.99024 -119.61282 15387 ft 364 kts 66°
2026-04-23 22:33 36.99987 -119.58337 16137 ft 368 kts 66°
2026-04-23 22:34 37.00957 -119.55358 16883 ft 372 kts 66°
2026-04-23 22:34 37.01936 -119.52348 17618 ft 375 kts 66°
2026-04-23 22:34 37.02922 -119.49308 18339 ft 379 kts 66°
2026-04-23 22:34 37.03918 -119.46238 18941 ft 383 kts 66°
2026-04-23 22:35 37.04926 -119.43127 19471 ft 389 kts 66°
2026-04-23 22:35 37.05949 -119.39963 20030 ft 394 kts 66°
2026-04-23 22:35 37.06983 -119.36766 20572 ft 399 kts 66°
2026-04-23 22:35 37.08032 -119.33517 21112 ft 405 kts 65°
2026-04-23 22:36 37.09092 -119.30228 21649 ft 410 kts 65°
2026-04-23 22:36 37.10165 -119.26896 22179 ft 415 kts 65°
2026-04-23 22:36 37.11250 -119.23522 22709 ft 420 kts 65°
2026-04-23 22:36 37.12343 -119.20120 23299 ft 423 kts 65°
2026-04-23 22:37 37.13448 -119.16679 23755 ft 429 kts 65°
2026-04-23 22:37 37.14565 -119.13193 24164 ft 433 kts 65°
2026-04-23 22:37 37.15691 -119.09677 24570 ft 438 kts 65°
2026-04-23 22:37 37.16830 -119.06113 24974 ft 442 kts 65°
2026-04-23 22:38 37.17978 -119.02521 25378 ft 446 kts 65°
2026-04-23 22:38 37.19136 -118.98888 25776 ft 451 kts 65°
2026-04-23 22:38 37.20304 -118.95222 26172 ft 455 kts 65°
2026-04-23 22:38 37.21481 -118.91521 26591 ft 459 kts 65°
2026-04-23 22:39 37.22669 -118.87785 26966 ft 463 kts 65°
2026-04-23 22:39 37.23866 -118.84013 27337 ft 468 kts 65°
2026-04-23 22:39 37.25073 -118.80208 27657 ft 472 kts 65°
2026-04-23 22:39 37.26293 -118.76357 28046 ft 476 kts 65°
2026-04-23 22:40 37.27433 -118.72430 28396 ft 483 kts 73°
2026-04-23 22:40 37.27913 -118.68227 28794 ft 488 kts 83°
2026-04-23 22:40 37.28618 -118.59660 29323 ft 498 kts 82°
2026-04-23 22:41 37.28958 -118.55317 29727 ft 501 kts 83°
2026-04-23 22:41 37.29290 -118.50995 29986 ft 506 kts 83°
2026-04-23 22:41 37.29629 -118.46529 30327 ft 509 kts 83°
2026-04-23 22:41 37.29961 -118.42155 30527 ft 512 kts 83°
2026-04-23 22:42 37.30298 -118.37689 30734 ft 514 kts 83°
2026-04-23 22:42 37.30634 -118.33216 31118 ft 516 kts 83°
2026-04-23 22:42 37.30970 -118.28712 31317 ft 521 kts 83°
2026-04-23 22:42 37.31307 -118.24173 31675 ft 522 kts 83°
2026-04-23 22:43 37.31644 -118.19613 31932 ft 526 kts 83°
2026-04-23 22:43 37.31981 -118.15028 32172 ft 529 kts 83°
2026-04-23 22:43 37.32322 -118.10357 32434 ft 531 kts 84°
2026-04-23 22:43 37.32658 -118.05740 32768 ft 532 kts 83°
2026-04-23 22:44 37.32993 -118.01102 33122 ft 533 kts 83°
2026-04-23 22:44 37.33325 -117.96474 33494 ft 533 kts 84°
2026-04-23 22:44 37.33654 -117.91890 33701 ft 534 kts 84°
2026-04-23 22:44 37.33983 -117.87246 34067 ft 534 kts 84°
2026-04-23 22:45 37.34311 -117.82605 34428 ft 533 kts 84°
2026-04-23 22:45 37.34638 -117.77969 34746 ft 533 kts 84°
2026-04-23 22:45 37.34964 -117.73317 35059 ft 533 kts 84°
2026-04-23 22:45 37.35285 -117.68686 35429 ft 532 kts 84°
2026-04-23 22:46 37.35606 -117.64049 35745 ft 532 kts 84°
2026-04-23 22:46 37.35925 -117.59422 36037 ft 531 kts 84°
2026-04-23 22:46 37.36239 -117.54793 36242 ft 533 kts 84°
2026-04-23 22:46 37.36555 -117.50155 36539 ft 532 kts 84°
2026-04-23 22:47 37.36867 -117.45517 36858 ft 532 kts 84°
2026-04-23 22:47 37.37177 -117.40896 37160 ft 531 kts 84°
2026-04-23 22:47 37.37431 -117.36267 37423 ft 531 kts 91°
2026-04-23 22:47 37.37030 -117.31681 37709 ft 526 kts 107°
2026-04-23 22:48 37.35806 -117.27396 37954 ft 518 kts 121°
2026-04-23 22:48 37.33931 -117.23575 38135 ft 508 kts 136°
2026-04-23 22:48 37.31469 -117.20500 38360 ft 493 kts 149°
2026-04-23 22:48 37.28782 -117.17825 38483 ft 492 kts 152°
2026-04-23 22:49 37.25976 -117.15396 38630 ft 490 kts 154°
2026-04-23 22:49 37.23152 -117.12985 38795 ft 491 kts 154°
2026-04-23 22:49 37.20326 -117.10588 38923 ft 491 kts 154°
2026-04-23 22:50 37.14647 -117.05785 38991 ft 495 kts 154°
2026-04-23 22:50 37.08910 -117.00944 38992 ft 499 kts 154°
2026-04-23 22:51 37.03127 -116.96072 38953 ft 502 kts 154°
2026-04-23 22:51 36.97361 -116.91224 39002 ft 499 kts 154°
2026-04-23 22:52 36.91574 -116.86368 38990 ft 502 kts 154°
2026-04-23 22:52 36.85806 -116.81535 38969 ft 498 kts 154°
2026-04-23 22:53 36.80058 -116.76729 38962 ft 497 kts 154°
2026-04-23 22:53 36.74317 -116.71937 38957 ft 496 kts 154°
2026-04-23 22:54 36.68577 -116.67155 38955 ft 496 kts 154°
2026-04-23 22:54 36.62910 -116.62234 38936 ft 504 kts 145°
2026-04-23 22:54 36.60596 -116.58965 38923 ft 518 kts 129°
2026-04-23 22:55 36.58867 -116.55006 38961 ft 521 kts 121°
2026-04-23 22:55 36.55619 -116.46977 38943 ft 518 kts 122°
2026-04-23 22:56 36.52419 -116.38994 38936 ft 514 kts 122°
2026-04-23 22:56 36.49241 -116.31067 38942 ft 510 kts 122°
2026-04-23 22:57 36.46082 -116.23206 38942 ft 507 kts 122°
2026-04-23 22:57 36.42937 -116.15397 38942 ft 504 kts 122°
2026-04-23 22:58 36.39805 -116.07642 38945 ft 501 kts 122°
2026-04-23 22:58 36.36689 -115.99941 38957 ft 497 kts 122°
2026-04-23 22:59 36.33589 -115.92302 38969 ft 495 kts 122°
2026-04-23 22:59 36.30496 -115.84698 38978 ft 493 kts 122°
2026-04-23 23:00 36.27415 -115.77139 38988 ft 490 kts 122°
2026-04-23 23:00 36.24347 -115.69620 38944 ft 489 kts 122°
2026-04-23 23:01 36.21287 -115.62151 38957 ft 485 kts 121°
2026-04-23 23:01 36.18244 -115.54736 39017 ft 481 kts 122°
2026-04-23 23:02 36.15215 -115.47384 39040 ft 476 kts 122°
2026-04-23 23:02 36.12212 -115.40098 38999 ft 476 kts 122°
2026-04-23 23:03 36.09214 -115.32839 38998 ft 472 kts 122°
2026-04-23 23:03 36.06225 -115.25623 38971 ft 471 kts 122°
2026-04-23 23:04 36.03238 -115.18426 38970 ft 470 kts 122°
2026-04-23 23:04 36.00275 -115.11304 38997 ft 469 kts 122°
2026-04-23 23:05 35.97288 -115.04140 39004 ft 471 kts 122°
2026-04-23 23:05 35.94268 -114.96908 38936 ft 477 kts 122°
2026-04-23 23:06 35.91184 -114.89544 38970 ft 483 kts 122°
2026-04-23 23:06 35.88075 -114.82135 38962 ft 490 kts 122°
2026-04-23 23:07 35.84938 -114.74679 38912 ft 496 kts 122°
2026-04-23 23:07 35.81733 -114.67076 38956 ft 503 kts 122°
2026-04-23 23:08 35.78484 -114.59387 38901 ft 509 kts 122°
2026-04-23 23:08 35.75199 -114.51629 38919 ft 511 kts 122°
2026-04-23 23:09 35.71908 -114.43879 38888 ft 511 kts 122°
2026-04-23 23:09 35.68615 -114.36138 38895 ft 511 kts 122°
2026-04-23 23:10 35.65867 -114.29692 38878 ft 512 kts 122°
2026-04-23 23:10 35.61999 -114.20644 38884 ft 511 kts 122°
2026-04-23 23:11 35.58692 -114.12919 38884 ft 511 kts 122°
2026-04-23 23:11 35.55380 -114.05204 38911 ft 511 kts 122°
2026-04-23 23:12 35.52057 -113.97481 38918 ft 511 kts 122°
2026-04-23 23:12 35.48393 -113.90081 38933 ft 507 kts 128°
2026-04-23 23:13 35.44513 -113.82869 38936 ft 505 kts 129°
2026-04-23 23:13 35.40633 -113.75694 38937 ft 505 kts 129°
2026-04-23 23:14 35.36749 -113.68527 38928 ft 505 kts 129°
2026-04-23 23:14 35.33517 -113.62573 38888 ft 505 kts 129°
2026-04-23 23:14 35.31572 -113.58995 38643 ft 504 kts 128°
2026-04-23 23:15 35.29635 -113.55436 37752 ft 505 kts 128°
2026-04-23 23:15 35.27667 -113.51825 36860 ft 508 kts 128°
2026-04-23 23:15 35.25712 -113.48240 36103 ft 508 kts 128°
2026-04-23 23:15 35.23728 -113.44605 35071 ft 516 kts 128°
2026-04-23 23:16 35.21754 -113.40992 34550 ft 507 kts 128°
2026-04-23 23:16 35.19801 -113.37423 33564 ft 504 kts 128°
2026-04-23 23:16 35.17853 -113.33863 32401 ft 504 kts 128°
2026-04-23 23:16 35.15918 -113.30315 31439 ft 499 kts 128°
2026-04-23 23:17 35.14005 -113.26808 30698 ft 495 kts 128°
2026-04-23 23:17 35.12070 -113.23267 30077 ft 507 kts 128°
2026-04-23 23:17 35.10104 -113.19671 29317 ft 510 kts 127°
2026-04-23 23:17 35.08134 -113.16075 28822 ft 510 kts 128°
2026-04-23 23:18 35.06147 -113.12477 28540 ft 510 kts 128°
2026-04-23 23:18 35.02180 -113.05296 28510 ft 511 kts 128°
2026-04-23 23:19 34.98203 -112.98111 28508 ft 511 kts 128°
2026-04-23 23:19 34.94491 -112.91419 28492 ft 509 kts 128°
2026-04-23 23:20 34.90951 -112.85049 28490 ft 509 kts 128°
2026-04-23 23:20 34.87005 -112.77961 28478 ft 502 kts 128°
2026-04-23 23:21 34.83108 -112.70976 28465 ft 496 kts 128°
2026-04-23 23:21 34.79271 -112.64110 28443 ft 492 kts 129°
2026-04-23 23:22 34.75432 -112.57256 28439 ft 489 kts 129°
2026-04-23 23:22 34.71607 -112.50444 28436 ft 486 kts 130°
2026-04-23 23:22 34.69403 -112.47395 28426 ft 477 kts 145°
2026-04-23 23:23 34.66847 -112.44808 28063 ft 482 kts 146°
2026-04-23 23:23 34.64250 -112.42198 27404 ft 486 kts 147°
2026-04-23 23:23 34.61640 -112.39610 26814 ft 484 kts 147°
2026-04-23 23:23 34.59032 -112.37048 26251 ft 479 kts 147°
2026-04-23 23:24 34.56450 -112.34525 25686 ft 474 kts 147°
2026-04-23 23:24 34.53891 -112.32029 25105 ft 470 kts 147°
2026-04-23 23:24 34.51350 -112.29552 24538 ft 467 kts 147°
2026-04-23 23:24 34.48822 -112.27088 23969 ft 464 kts 147°
2026-04-23 23:25 34.46308 -112.24661 23356 ft 460 kts 149°
2026-04-23 23:25 34.43546 -112.22844 22502 ft 445 kts 168°
2026-04-23 23:25 34.40595 -112.22015 22047 ft 430 kts 174°
2026-04-23 23:25 34.37707 -112.21243 21711 ft 421 kts 174°
2026-04-23 23:26 34.34857 -112.20490 21207 ft 418 kts 174°
2026-04-23 23:26 34.32030 -112.19754 20696 ft 414 kts 174°
2026-04-23 23:26 34.29223 -112.19027 20205 ft 411 kts 174°
2026-04-23 23:26 34.26438 -112.18305 19736 ft 408 kts 174°
2026-04-23 23:27 34.23670 -112.17590 19254 ft 405 kts 174°
2026-04-23 23:27 34.20929 -112.16881 18780 ft 402 kts 174°
2026-04-23 23:27 34.18195 -112.16175 18316 ft 401 kts 174°
2026-04-23 23:27 34.15477 -112.15474 17770 ft 399 kts 174°
2026-04-23 23:28 34.12770 -112.14777 17283 ft 396 kts 173°
2026-04-23 23:28 34.10083 -112.14084 16801 ft 394 kts 173°
2026-04-23 23:28 34.07435 -112.13231 16158 ft 400 kts 165°
2026-04-23 23:28 34.04819 -112.12108 15624 ft 398 kts 166°
2026-04-23 23:29 34.02204 -112.11027 15071 ft 397 kts 166°
2026-04-23 23:29 33.99584 -112.09963 14496 ft 397 kts 166°
2026-04-23 23:29 33.96963 -112.08908 13918 ft 397 kts 166°
2026-04-23 23:29 33.94346 -112.07860 13278 ft 397 kts 166°
2026-04-23 23:30 33.91763 -112.06828 12648 ft 396 kts 165°
2026-04-23 23:30 33.89154 -112.05787 12082 ft 393 kts 165°
2026-04-23 23:30 33.86565 -112.04742 11464 ft 393 kts 165°
2026-04-23 23:30 33.83981 -112.03691 10862 ft 389 kts 164°
2026-04-23 23:31 33.81443 -112.02661 10403 ft 370 kts 164°
2026-04-23 23:31 33.79126 -112.01722 10389 ft 341 kts 165°
2026-04-23 23:31 33.76959 -112.00842 10406 ft 320 kts 165°
2026-04-23 23:31 33.74888 -112.00006 10245 ft 309 kts 165°
2026-04-23 23:32 33.72890 -111.99197 9982 ft 296 kts 165°
2026-04-23 23:32 33.70970 -111.98422 9632 ft 287 kts 166°
2026-04-23 23:32 33.69098 -111.97666 9241 ft 280 kts 166°
2026-04-23 23:32 33.67274 -111.96930 8855 ft 274 kts 165°
2026-04-23 23:33 33.65488 -111.96208 8445 ft 267 kts 165°
2026-04-23 23:33 33.63741 -111.95503 8095 ft 265 kts 165°
2026-04-23 23:33 33.61986 -111.94795 7726 ft 267 kts 165°
2026-04-23 23:33 33.60223 -111.94082 7364 ft 268 kts 165°
2026-04-23 23:34 33.58449 -111.93366 7007 ft 270 kts 165°
2026-04-23 23:34 33.56680 -111.92652 6648 ft 265 kts 164°
2026-04-23 23:34 33.54959 -111.91952 6340 ft 257 kts 163°
2026-04-23 23:34 33.53475 -111.90810 5970 ft 257 kts 133°
2026-04-23 23:35 33.52752 -111.88884 5620 ft 255 kts 98°
2026-04-23 23:35 33.52743 -111.86793 5363 ft 246 kts 92°
2026-04-23 23:35 33.52749 -111.84784 5152 ft 235 kts 91°
2026-04-23 23:35 33.52774 -111.82912 5096 ft 216 kts 91°
2026-04-23 23:36 33.52777 -111.81197 5035 ft 196 kts 105°
2026-04-23 23:36 33.52077 -111.79951 4888 ft 176 kts 160°
2026-04-23 23:36 33.50951 -111.79564 5032 ft 167 kts 172°
2026-04-23 23:36 33.49752 -111.79262 5123 ft 187 kts 173°
2026-04-23 23:37 33.48423 -111.78930 5110 ft 198 kts 173°
2026-04-23 23:37 33.47045 -111.78805 5030 ft 201 kts 196°
2026-04-23 23:37 33.45935 -111.79702 4967 ft 193 kts 236°
2026-04-23 23:37 33.45282 -111.81070 4983 ft 188 kts 243°
2026-04-23 23:38 33.44657 -111.82447 4740 ft 188 kts 242°
2026-04-23 23:38 33.44159 -111.83878 4420 ft 186 kts 257°
2026-04-23 23:38 33.44044 -111.85420 4099 ft 186 kts 269°
2026-04-23 23:38 33.44061 -111.86975 3712 ft 190 kts 269°
2026-04-23 23:39 33.44069 -111.88591 3257 ft 197 kts 269°
2026-04-23 23:39 33.44071 -111.90215 3067 ft 189 kts 269°
2026-04-23 23:39 33.44073 -111.91746 2787 ft 177 kts 269°
2026-04-23 23:39 33.44075 -111.93202 2277 ft 173 kts 268°
2026-04-23 23:40 33.44066 -111.94601 1942 ft 163 kts 270°
2026-04-23 23:40 33.44092 -111.95893 1694 ft 149 kts 269°
2026-04-23 23:40 33.44080 -111.97118 1440 ft 147 kts 269°
2026-04-23 23:40 33.44081 -111.98340 1315 ft 148 kts 269°
2026-04-23 23:41 33.44088 -111.99512 1147 ft 131 kts 265°
2026-04-23 23:41 33.44082 -112.00433 1131 ft 80 kts 270°
2026-04-23 23:41 33.44082 -112.00828 1131 ft 38 kts 270°
2026-04-23 23:41 33.44022 -112.01083 1135 ft 19 kts 191°
2026-04-23 23:42 33.43976 -112.01030 1130 ft 8 kts 96°
2026-04-23 23:42 33.43974 -112.00949 1126 ft 11 kts 88°
2026-04-23 23:42 33.43975 -112.00845 1126 ft 14 kts 89°
2026-04-23 23:42 33.43939 -112.00741 1120 ft 16 kts 149°
2026-04-23 23:43 33.43901 -112.00618 1127 ft 18 kts 90°
2026-04-23 23:43 33.43902 -112.00470 1127 ft 14 kts 88°
2026-04-23 23:43 33.43904 -112.00343 1127 ft 16 kts 97°
2026-04-23 23:43 33.43819 -112.00300 1123 ft 15 kts 177°
2026-04-23 23:44 33.43743 -112.00294 1123 ft 8 kts 152°
2026-04-23 23:44 33.43733 -112.00275 1121 ft 3 kts 106°
2026-04-23 23:44 33.43730 -112.00248 1125 ft 1 kts 95°
2026-04-23 23:44 33.43730 -112.00243 1123 ft 0 kts 94°